Location: Asheville, NC
(35.6000°N, 82.5500°W)
Time: 23:09:41
(UTC-04:00)

AO-85 - Pass Details

Date: 15 February 2018
Orbit: 499 x 786 km, 64.8° (Epoch: 17 May)

Event Time Altitude Azimuth Distance (km) Brightness Sun altitude
Exits shadow 05:13:46 56° 102° (ESE) 644 ? -25.6°
Drops below altitude 10° 05:17:39 10° 38° (NE) 1,869 ? -24.8°
Sets 05:20:00 0° 34° (NE) 2,819 ? -24.4°
